Location: ????
(55.5675°N, 37.6272°E)
Time: 21:22:26
(UTC+00:00)

USA 281 - Pass Details

Date: 14 April 2026
Orbit: 1079 x 1080 km, 106.0° (Epoch: 5 January)

Event Time Altitude Azimuth Distance (km) Brightness Sun altitude
Exits shadow 23:41:47 31° 212° (SSW) 1,793 3.8 -19.2°
Maximum altitude 23:44:01 40° 253° (WSW) 1,546 3.7 -19.0°
Drops below altitude 10° 23:50:10 10° 321° (NW) 2,933 5.7 -18.5°
Sets 23:52:53 0° 329° (NNW) 3,893 6.4 -18.2°
